Lapse_Rate
3.3 3.5 4.0 4.8 4.8 5.2 4.7 4.6 4.5 4.0 4.4 4.0 4.2 4.1 4.4 4.5 4.9 5.3 5.4 5.4 5.2 4.7 3.9 3.7 3.6 2.8 2.0 1.6 2.4 1.9 2.3 2.4
2.9 3.0 5.6 5.0 4.2 4.7 4.9 4.6 4.4 4.3 4.6 5.1 4.7 4.6 4.1 4.6 5.3 5.5 5.0 5.4 5.4 4.6 3.9 3.4 3.4 2.4 2.3 2.0 2.7 2.8 2.4 2.1
2.8 2.4 4.3 5.4 5.2 4.7 5.1 5.1 4.9 5.0 5.3 5.9 4.8 3.7 4.1 4.6 4.6 5.2 4.8 5.5 5.1 4.4 3.6 2.3 2.4 2.4 2.3 2.5 3.1 2.2 2.9 1.9
2.7 2.0 3.0 4.0 5.5 5.6 5.1 5.2 5.3 5.7 5.9 5.8 4.9 4.0 4.1 4.3 4.7 4.3 4.1 4.8 4.7 4.5 3.5 2.8 2.4 2.2 2.5 2.3 2.2 3.1 3.1 2.4
1.9 2.1 1.9 2.0 3.0 4.3 5.6 5.3 5.3 4.3 3.5 5.4 6.3 6.5 6.0 6.2 5.8 4.4 4.4 4.4 3.9 4.0 3.6 3.2 2.2 2.4 2.9 2.8 2.1 2.4 2.8 2.6
1.3 1.1 0.8 0.9 0.9 2.4 2.1 3.0 3.0 3.3 3.4 5.1 4.9 5.4 6.1 4.2 4.2 4.5 3.7 3.0 3.9 4.0 3.7 2.7 1.7 2.5 2.8 2.9 2.5 2.1 2.8 2.6
1.5 1.0 0.4 0.5 0.4 0.6 1.0 1.8 2.9 3.4 3.2 3.1 4.2 4.1 3.5 3.3 3.0 2.7 2.2 2.0 1.9 2.2 2.5 2.5 2.6 2.1 1.8 2.7 2.4 2.1 2.4 2.8
0.1 0.2 -0.1 -0.2 -0.3 0.3 1.1 1.1 2.2 3.3 3.2 3.4 3.3 3.6 3.5 3.8 3.4 2.7 2.7 2.1 1.4 1.7 1.9 2.0 1.8 2.3 2.3 2.1 2.0 2.2 1.6 1.8
0.3 -0.7 -0.8 -1.1 -0.8 -0.5 0.2 1.0 1.8 2.3 2.9 3.0 3.1 3.3 3.7 3.8 2.9 3.1 2.5 3.0 2.5 2.8 2.1 2.2 2.0 2.3 1.7 1.5 1.1 2.0 2.4 2.5
0.6 0.3 -0.8 -1.1 -1.1 -0.5 -0.1 0.6 1.7 2.5 3.1 3.2 3.2 2.9 2.8 3.3 3.0 2.6 2.6 2.5 2.8 2.5 2.1 2.2 2.2 2.1 1.5 1.6 2.8 2.8 1.8 1.6
0.8 0.9 0.1 -0.9 -0.8 -0.4 -0.1 0.6 0.7 1.7 2.3 3.2 3.5 3.3 3.2 3.4 3.2 3.6 3.4 3.0 2.4 2.4 2.3 2.0 2.1 1.9 2.2 2.7 3.7 3.0 2.5 1.4
-0.5 -0.2 1.0 1.5 0.2 -0.6 -0.2 0.6 1.4 1.3 1.8 1.8 2.5 2.3 2.7 3.0 3.2 3.2 2.7 2.8 2.5 3.1 3.1 3.3 3.6 3.7 2.6 1.6 2.1 1.6 1.8 1.0
0.5 1.3 1.1 2.0 1.1 0.5 0.1 0.5 1.3 1.2 0.9 0.8 0.7 0.8 1.3 1.3 1.6 2.1 2.2 2.4 3.0 3.5 3.6 3.8 3.6 3.6 2.8 1.5 1.0 1.4 1.7 1.2
0.4 0.9 1.1 0.8 1.3 1.1 0.8 0.7 1.0 1.7 1.6 1.9 1.4 1.2 1.2 0.9 2.4 2.5 3.1 3.2 3.1 3.2 2.9 2.7 3.3 2.1 2.5 1.8 1.5 1.6 1.2 1.3
-0.4 -0.5 -0.3 0.5 0.4 1.2 0.1 0.4 1.3 1.9 2.2 2.3 1.9 1.6 1.9 1.6 1.2 2.4 3.3 3.8 3.4 3.0 1.6 2.0 1.9 0.6 -0.0 0.0 1.1 1.2 0.7 0.6
-0.4 -1.0 -1.0 -0.9 -0.2 0.2 0.2 0.0 0.2 1.5 2.3 2.6 2.0 1.3 2.0 1.6 1.1 2.2 3.1 3.9 4.2 3.6 1.6 1.5 2.0 1.2 0.9 0.7 0.3 -0.0 -0.1 0.1
-0.1 -0.5 -1.4 -1.7 -0.9 -0.6 -0.3 -1.0 -1.2 -0.1 1.4 1.6 2.5 2.7 2.6 2.0 2.0 2.7 3.2 2.5 2.7 2.0 0.7 0.8 0.5 -0.1 -1.8 -1.5 -0.5 -0.1 0.2 0.4
0.8 0.6 0.2 -1.2 -1.4 -1.7 -1.1 -0.7 -1.1 -1.1 -0.7 0.9 2.0 2.5 2.8 3.1 2.8 1.7 1.3 1.4 0.9 0.9 0.3 -0.1 0.1 -0.2 -2.5 -2.3 -1.6 0.5 0.3 -1.2
0.6 1.1 -0.4 -1.9 -3.5 -3.5 -3.1 -2.1 -0.9 -1.0 -0.4 0.9 1.7 1.5 1.7 0.2 0.4 0.9 1.3 1.0 1.4 0.9 0.3 0.3 0.0 -1.2 -2.7 -2.4 -2.5 -2.0 -1.9 -1.2
Wind_Speed
8 8 6 6 6 6 7 7 8 8 7 6 5 4 5 12 13 11 18 17 19 12 10 9 11 5 3 4 3 1 3 4
8 8 8 7 6 8 8 8 10 9 6 7 6 6 6 7 12 15 16 16 16 13 9 10 10 5 5 4 3 4 1 3
9 11 9 8 10 8 8 9 10 8 6 4 3 3 4 4 6 12 13 15 17 13 11 6 7 3 4 5 4 2 2 4
13 14 14 9 11 10 10 9 11 10 10 6 4 4 3 3 3 4 6 11 11 14 12 8 7 5 5 5 6 6 4 3
11 15 14 13 9 8 11 10 11 7 8 8 12 10 9 6 7 3 7 13 12 14 14 13 8 6 5 6 5 4 4 4
14 17 17 14 10 12 10 9 9 8 10 11 8 7 6 3 3 7 6 6 13 15 15 11 6 7 6 7 5 6 4 3
12 12 14 15 11 10 10 11 11 9 9 8 9 8 6 5 5 4 4 4 4 7 6 7 8 6 6 6 6 7 8 6
15 16 15 15 17 15 14 14 14 12 10 10 9 9 8 9 7 5 5 4 3 5 5 6 4 9 10 9 7 7 6 7
16 18 16 16 18 18 17 17 15 15 13 11 10 8 6 5 5 4 4 4 3 5 6 6 7 9 8 7 3 4 5 7
15 15 17 17 17 19 19 18 17 15 15 12 10 9 8 8 6 4 5 5 5 6 6 7 7 8 8 7 6 7 6 6
9 12 15 15 15 15 17 17 17 15 15 14 12 12 11 10 8 11 10 9 7 7 8 7 8 8 8 9 8 6 9 5
10 11 11 11 12 15 16 16 16 15 15 15 15 13 14 13 13 12 11 9 9 9 8 8 11 10 9 9 7 7 9 7
7 6 8 11 13 14 16 17 17 17 18 18 19 17 18 19 20 18 15 13 9 11 11 11 10 10 9 9 8 9 10 10
7 7 9 12 13 14 16 17 18 17 17 17 17 18 19 17 15 12 10 12 13 13 12 11 10 10 10 8 9 10 10 10
6 7 10 11 12 14 14 15 16 16 15 16 16 16 19 13 10 10 13 14 14 10 10 10 8 7 6 6 8 8 7 6
8 9 12 11 11 12 13 13 16 16 16 17 18 16 14 8 8 11 13 15 12 12 10 7 7 8 7 10 9 9 9 8
9 8 7 11 13 14 13 14 16 16 17 19 15 13 13 11 10 11 13 12 11 10 10 9 8 5 10 11 11 9 10 11
9 12 14 13 15 13 14 15 13 17 17 15 14 13 13 11 7 9 9 10 8 8 6 8 8 7 15 14 13 9 9 10
12 12 10 9 7 8 7 8 13 14 14 13 12 11 9 7 8 8 8 7 8 8 8 9 8 7 14 15 16 11 10 10
Wind_Direction
173 168 170 159 152 137 132 134 125 116 115 107 100 103 123 148 159 157 150 149 158 171 164 161 169 176 166 114 141 141 148 165
162 165 163 166 153 146 147 140 144 138 141 138 155 147 153 151 169 160 158 162 165 176 169 174 185 178 174 155 155 164 144 149
168 168 178 170 174 151 150 150 151 156 163 160 121 125 108 125 126 138 143 160 185 180 184 183 190 157 160 178 167 134 157 173
178 177 186 174 179 160 161 162 166 165 162 136 103 101 81 96 149 143 145 177 183 194 200 179 177 172 189 188 181 177 179 185
172 178 185 183 179 167 164 164 170 163 151 163 165 177 171 176 175 157 168 192 198 201 197 202 176 172 199 205 195 185 148 171
179 178 182 183 174 177 167 164 175 165 171 177 174 173 185 133 139 160 177 186 199 207 202 194 171 188 203 199 180 189 200 165
176 174 165 176 177 176 172 176 184 181 180 178 181 183 182 185 187 190 187 189 207 227 221 204 198 194 202 206 208 202 210 204
165 170 176 171 178 182 185 186 193 190 190 189 192 195 199 204 208 202 206 203 180 198 197 208 202 209 210 205 203 211 196 206
178 180 180 178 178 182 187 192 195 194 194 202 202 198 204 220 212 214 222 232 197 190 203 202 208 208 205 200 192 221 213 222
184 179 181 183 183 184 186 189 197 195 198 198 202 202 201 209 208 202 219 211 209 205 205 206 197 198 180 178 201 206 194 206
179 186 188 187 183 179 184 191 193 190 190 197 200 200 200 206 198 214 216 210 203 202 213 199 205 196 188 194 214 215 208 196
196 190 189 181 174 179 183 187 188 190 191 189 195 196 198 203 213 215 208 205 201 212 213 217 233 229 201 191 198 190 199 181
210 175 160 181 184 180 184 187 192 193 192 190 196 195 196 206 211 212 205 206 205 218 224 233 228 232 174 174 179 194 193 193
201 179 189 187 195 189 188 191 196 197 193 198 202 209 207 217 213 216 206 210 211 219 211 204 207 204 184 188 185 201 195 197
215 185 199 198 198 200 195 195 194 194 196 202 207 209 217 211 193 193 194 202 205 211 202 196 188 178 179 166 185 187 170 170
221 209 203 199 198 199 202 194 193 192 200 206 212 212 219 202 184 190 194 205 213 210 199 188 184 192 181 179 172 162 150 143
222 232 222 199 197 202 197 193 194 188 200 213 214 216 218 212 196 194 202 206 201 183 183 173 174 179 159 167 154 156 149 141
233 218 212 207 204 193 198 197 176 189 199 207 207 208 215 210 198 175 186 187 171 173 163 158 169 167 151 144 134 139 131 122
226 219 224 209 166 169 162 164 180 182 192 201 201 193 194 148 149 163 163 160 166 168 165 157 148 136 130 127 116 114 103 105